Voltar ao catálogo

STARLINK-6301

AtivoComunicaçõesVLEO
NORAD 56392·PAYLOAD·🇺🇸 United States

Lançado May 4, 2023 de Cape Canaveral Space Force Station

Loading…

Próximas Passagens (próximas 24 horas)

TLE

AtualizadoSource: CelesTrak SupGP

Época: Sep 14, 2026, 21:35 UTC

1 56392C 23061U   26257.89979167 -.00006148  00000+0 -22268-3 0  2575
2 56392  42.9997 198.6610 0001121 258.3257 323.3927 15.27582291    17

Acompanhe STARLINK-6301 em tempo real com AllMySat

Download on the App Store